OEGSF LOWS-LOWW

Flight info

Callsign OEGSF
Flight time 0h 37m
Altitude 25000
Route NEMAL NEMAL2W
Aircraft C25C/M-SDE2E3FGHRWXY/LB1

Departure

Time 2026-04-22 18:23
Airport Salzburg Airport (LOWS)

Arrival

Time 2026-04-22 19:00
Airport Vienna International Airport (LOWW)
Time Latitude Longitude Altitude Speed Heading
2026-04-22 17:59 47.79524 12.99816 1408 ft 0 kts 334°
2026-04-22 18:14 47.79539 12.99812 1408 ft 4 kts 20°
2026-04-22 18:14 47.79566 12.99835 1411 ft 6 kts 348°
2026-04-22 18:14 47.79613 12.99804 1408 ft 10 kts 337°
2026-04-22 18:14 47.79689 12.99756 1408 ft 13 kts 336°
2026-04-22 18:15 47.79733 12.99728 1410 ft 0 kts 338°
2026-04-22 18:15 47.79737 12.99726 1408 ft 3 kts 348°
2026-04-22 18:15 47.79767 12.99776 1410 ft 10 kts 66°
2026-04-22 18:15 47.79757 12.99860 1409 ft 9 kts 151°
2026-04-22 18:16 47.79696 12.99898 1412 ft 10 kts 158°
2026-04-22 18:16 47.79627 12.99942 1412 ft 11 kts 156°
2026-04-22 18:16 47.79553 12.99989 1412 ft 12 kts 157°
2026-04-22 18:16 47.79478 13.00037 1414 ft 12 kts 156°
2026-04-22 18:17 47.79428 13.00068 1408 ft 0 kts 157°
2026-04-22 18:18 47.79426 13.00069 1408 ft 1 kts 157°
2026-04-22 18:18 47.79399 13.00087 1412 ft 9 kts 157°
2026-04-22 18:18 47.79312 13.00142 1408 ft 17 kts 156°
2026-04-22 18:19 47.79197 13.00214 1408 ft 18 kts 156°
2026-04-22 18:19 47.79088 13.00282 1411 ft 15 kts 156°
2026-04-22 18:19 47.79045 13.00310 1408 ft 0 kts 157°
2026-04-22 18:20 47.79042 13.00312 1408 ft 2 kts 157°
2026-04-22 18:20 47.79001 13.00339 1408 ft 12 kts 157°
2026-04-22 18:20 47.78897 13.00404 1408 ft 19 kts 156°
2026-04-22 18:21 47.78767 13.00486 1409 ft 22 kts 156°
2026-04-22 18:21 47.78623 13.00576 1410 ft 21 kts 158°
2026-04-22 18:21 47.78526 13.00672 1411 ft 15 kts 98°
2026-04-22 18:21 47.78556 13.00816 1409 ft 14 kts 68°
2026-04-22 18:22 47.78612 13.00851 1410 ft 0 kts 338°
2026-04-22 18:23 47.78697 13.00798 1410 ft 38 kts 336°
2026-04-22 18:23 47.79266 13.00432 1437 ft 137 kts 334°
2026-04-22 18:23 47.80231 12.99816 2176 ft 182 kts 336°
2026-04-22 18:24 47.83247 12.97720 3377 ft 274 kts 340°
2026-04-22 18:24 47.85006 12.97707 3922 ft 241 kts 20°
2026-04-22 18:24 47.86547 13.01255 5011 ft 196 kts 77°
2026-04-22 18:25 47.86769 13.03169 5538 ft 182 kts 79°
2026-04-22 18:25 47.86959 13.05051 6091 ft 189 kts 80°
2026-04-22 18:25 47.87129 13.07172 6676 ft 224 kts 81°
2026-04-22 18:26 47.87514 13.12084 7938 ft 248 kts 81°
2026-04-22 18:26 47.87703 13.14608 8706 ft 242 kts 81°
2026-04-22 18:26 47.87889 13.17067 9475 ft 235 kts 81°
2026-04-22 18:26 47.88084 13.19454 10247 ft 229 kts 80°
2026-04-22 18:27 47.88292 13.21785 10954 ft 224 kts 79°
2026-04-22 18:27 47.88508 13.24059 11676 ft 220 kts 78°
2026-04-22 18:27 47.88752 13.26394 12419 ft 238 kts 77°
2026-04-22 18:27 47.89032 13.28920 13205 ft 257 kts 78°
2026-04-22 18:28 47.89229 13.31656 14010 ft 273 kts 81°
2026-04-22 18:28 47.89265 13.34575 14744 ft 289 kts 88°
2026-04-22 18:28 47.89153 13.37625 15467 ft 301 kts 89°
2026-04-22 18:28 47.89039 13.40767 16211 ft 311 kts 89°
2026-04-22 18:29 47.88960 13.42966 16724 ft 317 kts 89°
2026-04-22 18:29 47.88810 13.47198 17715 ft 328 kts 89°
2026-04-22 18:29 47.88690 13.50639 18516 ft 336 kts 89°
2026-04-22 18:29 47.88570 13.54169 19233 ft 344 kts 90°
2026-04-22 18:30 47.88449 13.57773 19957 ft 352 kts 89°
2026-04-22 18:30 47.88203 13.65247 21470 ft 367 kts 90°
2026-04-22 18:30 47.88081 13.69003 22243 ft 372 kts 90°
2026-04-22 18:31 47.87958 13.72843 23034 ft 366 kts 90°
2026-04-22 18:31 47.87831 13.76540 23850 ft 349 kts 90°
2026-04-22 18:31 47.87706 13.80109 24269 ft 342 kts 90°
2026-04-22 18:31 47.87576 13.83628 24664 ft 336 kts 90°
2026-04-22 18:32 47.87490 13.85920 24933 ft 333 kts 90°
2026-04-22 18:32 47.87318 13.90488 25230 ft 334 kts 90°
2026-04-22 18:32 47.87187 13.93927 25263 ft 340 kts 90°
2026-04-22 18:32 47.87057 13.97473 25265 ft 344 kts 90°
2026-04-22 18:33 47.86926 14.01049 25270 ft 348 kts 90°
2026-04-22 18:33 47.86859 14.04667 25274 ft 351 kts 88°
2026-04-22 18:33 47.86822 14.08331 25274 ft 356 kts 88°
2026-04-22 18:33 47.86799 14.11663 25276 ft 359 kts 88°
2026-04-22 18:34 47.86780 14.15400 25276 ft 361 kts 87°
2026-04-22 18:34 47.86940 14.19147 25274 ft 362 kts 82°
2026-04-22 18:34 47.87224 14.22830 25273 ft 363 kts 80°
2026-04-22 18:34 47.87550 14.26524 25070 ft 349 kts 80°
2026-04-22 18:35 47.87866 14.30005 24699 ft 330 kts 79°
2026-04-22 18:35 47.88166 14.33306 24317 ft 314 kts 79°
2026-04-22 18:35 47.88446 14.36442 23903 ft 298 kts 79°
2026-04-22 18:35 47.88708 14.39439 23416 ft 285 kts 79°
2026-04-22 18:36 47.88950 14.42285 22931 ft 275 kts 80°
2026-04-22 18:36 47.89182 14.45087 22365 ft 269 kts 79°
2026-04-22 18:36 47.89400 14.47837 21814 ft 264 kts 80°
2026-04-22 18:36 47.89608 14.50536 21275 ft 260 kts 81°
2026-04-22 18:37 47.89647 14.52317 20925 ft 259 kts 86°
2026-04-22 18:37 47.89584 14.54991 20401 ft 256 kts 88°
2026-04-22 18:37 47.89447 14.57637 19889 ft 254 kts 90°
2026-04-22 18:37 47.89225 14.61086 19230 ft 251 kts 91°
2026-04-22 18:38 47.89106 14.62832 18891 ft 249 kts 90°
2026-04-22 18:38 47.88927 14.65348 18404 ft 247 kts 91°
2026-04-22 18:38 47.88744 14.67890 17854 ft 246 kts 91°
2026-04-22 18:39 47.88375 14.72856 17266 ft 229 kts 90°
2026-04-22 18:39 47.88211 14.75236 17254 ft 236 kts 90°
2026-04-22 18:39 47.88054 14.77725 17264 ft 253 kts 90°
2026-04-22 18:39 47.87893 14.80410 17268 ft 267 kts 89°
2026-04-22 18:40 47.87741 14.83245 17272 ft 280 kts 89°
2026-04-22 18:40 47.87637 14.86203 17274 ft 290 kts 88°
2026-04-22 18:40 47.87546 14.89260 17268 ft 300 kts 88°
2026-04-22 18:40 47.87466 14.92400 17270 ft 307 kts 88°
2026-04-22 18:41 47.87390 14.95575 17263 ft 313 kts 88°
2026-04-22 18:41 47.87309 14.98838 17269 ft 318 kts 88°
2026-04-22 18:41 47.87231 15.02158 17273 ft 322 kts 88°
2026-04-22 18:41 47.87156 15.05516 17264 ft 326 kts 88°
2026-04-22 18:42 47.87078 15.08901 17261 ft 328 kts 88°
2026-04-22 18:42 47.86998 15.12312 17267 ft 330 kts 88°
2026-04-22 18:42 47.86922 15.15692 17039 ft 321 kts 88°
2026-04-22 18:42 47.86842 15.19038 16104 ft 324 kts 88°
2026-04-22 18:43 47.86762 15.22398 15669 ft 322 kts 88°
2026-04-22 18:43 47.86688 15.25719 15173 ft 320 kts 88°
2026-04-22 18:43 47.86608 15.29027 14724 ft 319 kts 88°
2026-04-22 18:43 47.86526 15.32326 14325 ft 317 kts 88°
2026-04-22 18:44 47.86441 15.35605 13868 ft 315 kts 88°
2026-04-22 18:44 47.86356 15.38871 13339 ft 316 kts 88°
2026-04-22 18:44 47.86275 15.42079 12946 ft 313 kts 88°
2026-04-22 18:44 47.86190 15.45322 12545 ft 312 kts 88°
2026-04-22 18:45 47.86110 15.48546 12310 ft 306 kts 88°
2026-04-22 18:45 47.86026 15.51667 12254 ft 296 kts 88°
2026-04-22 18:45 47.85958 15.54699 12251 ft 304 kts 88°
2026-04-22 18:45 47.85883 15.57882 12242 ft 307 kts 87°
2026-04-22 18:46 47.85838 15.61060 12251 ft 306 kts 86°
2026-04-22 18:46 47.85821 15.64248 12253 ft 310 kts 86°
2026-04-22 18:46 47.85817 15.67441 12251 ft 314 kts 86°
2026-04-22 18:46 47.85813 15.70699 12250 ft 315 kts 86°
2026-04-22 18:47 47.85809 15.73881 12249 ft 298 kts 86°
2026-04-22 18:47 47.85793 15.76907 12242 ft 285 kts 85°
2026-04-22 18:47 47.85779 15.77901 12240 ft 282 kts 88°
2026-04-22 18:47 47.85744 15.78834 12237 ft 280 kts 89°
2026-04-22 18:48 47.85598 15.81283 12233 ft 286 kts 90°
2026-04-22 18:48 47.85416 15.84392 12238 ft 307 kts 91°
2026-04-22 18:48 47.85221 15.87576 12240 ft 312 kts 91°
2026-04-22 18:48 47.85025 15.90824 12243 ft 317 kts 91°
2026-04-22 18:49 47.84827 15.94078 12246 ft 320 kts 91°
2026-04-22 18:49 47.84641 15.97387 12233 ft 320 kts 90°
2026-04-22 18:49 47.84475 16.00713 12104 ft 323 kts 90°
2026-04-22 18:49 47.84317 16.04004 11913 ft 309 kts 90°
2026-04-22 18:50 47.84160 16.07093 11500 ft 289 kts 90°
2026-04-22 18:50 47.84013 16.09917 10697 ft 284 kts 90°
2026-04-22 18:50 47.83971 16.12864 10096 ft 281 kts 83°
2026-04-22 18:50 47.84127 16.15743 9447 ft 278 kts 81°
2026-04-22 18:51 47.84306 16.18606 8792 ft 276 kts 80°
2026-04-22 18:51 47.84494 16.21445 8194 ft 274 kts 80°
2026-04-22 18:51 47.84682 16.24253 7755 ft 269 kts 80°
2026-04-22 18:51 47.84854 16.26895 7334 ft 272 kts 80°
2026-04-22 18:52 47.85037 16.29666 6843 ft 273 kts 80°
2026-04-22 18:52 47.85213 16.32438 6328 ft 266 kts 80°
2026-04-22 18:52 47.85455 16.35161 6001 ft 258 kts 76°
2026-04-22 18:52 47.85759 16.37787 5618 ft 263 kts 76°
2026-04-22 18:53 47.86091 16.40481 5229 ft 264 kts 75°
2026-04-22 18:53 47.86420 16.43170 4820 ft 263 kts 75°
2026-04-22 18:53 47.86749 16.45834 4345 ft 256 kts 75°
2026-04-22 18:53 47.87086 16.48291 4068 ft 243 kts 69°
2026-04-22 18:54 47.87599 16.50535 4009 ft 223 kts 66°
2026-04-22 18:54 47.88099 16.52660 3997 ft 216 kts 65°
2026-04-22 18:54 47.88641 16.54833 4003 ft 228 kts 64°
2026-04-22 18:54 47.89229 16.57075 3998 ft 235 kts 63°
2026-04-22 18:55 47.89960 16.59276 3859 ft 237 kts 56°
2026-04-22 18:55 47.90758 16.61364 3479 ft 226 kts 55°
2026-04-22 18:55 47.91538 16.63321 3129 ft 211 kts 49°
2026-04-22 18:55 47.92641 16.64405 3038 ft 182 kts 17°
2026-04-22 18:56 47.93785 16.64973 3008 ft 165 kts 14°
2026-04-22 18:56 47.94895 16.64899 3000 ft 164 kts 348°
2026-04-22 18:56 47.96039 16.64523 3006 ft 171 kts 346°
2026-04-22 18:56 47.97193 16.64048 3011 ft 171 kts 345°
2026-04-22 18:57 47.98389 16.63545 2801 ft 186 kts 345°
2026-04-22 18:57 47.99598 16.63032 2570 ft 172 kts 345°
2026-04-22 18:57 48.00710 16.62574 2337 ft 160 kts 346°
2026-04-22 18:57 48.01748 16.62134 2121 ft 148 kts 346°
2026-04-22 18:58 48.02675 16.61741 1925 ft 126 kts 345°
2026-04-22 18:58 48.03391 16.61439 1761 ft 98 kts 345°
2026-04-22 18:58 48.04056 16.61167 1624 ft 99 kts 347°
2026-04-22 18:58 48.04733 16.60875 1490 ft 105 kts 345°
2026-04-22 18:59 48.05452 16.60575 1343 ft 108 kts 343°
2026-04-22 18:59 48.06178 16.60271 1187 ft 109 kts 344°
2026-04-22 18:59 48.06909 16.59958 1045 ft 110 kts 345°
2026-04-22 18:59 48.07649 16.59657 888 ft 111 kts 342°
2026-04-22 19:00 48.08392 16.59340 737 ft 110 kts 343°
2026-04-22 19:00 48.09110 16.59033 623 ft 99 kts 343°
2026-04-22 19:00 48.09667 16.58793 603 ft 63 kts 343°
2026-04-22 19:00 48.09997 16.58627 603 ft 35 kts 321°
2026-04-22 19:01 48.10105 16.58374 603 ft 23 kts 302°
2026-04-22 19:01 48.10154 16.58311 603 ft 0 kts 340°
2026-04-22 19:02 48.10181 16.58298 603 ft 10 kts 343°
2026-04-22 19:02 48.10306 16.58246 603 ft 26 kts 345°
2026-04-22 19:02 48.10478 16.58173 603 ft 25 kts 344°
2026-04-22 19:03 48.10644 16.58103 603 ft 24 kts 346°
2026-04-22 19:03 48.10804 16.58034 603 ft 23 kts 342°
2026-04-22 19:03 48.10958 16.57970 603 ft 22 kts 343°
2026-04-22 19:03 48.11089 16.57908 603 ft 18 kts 328°
2026-04-22 19:04 48.11144 16.57756 603 ft 16 kts 296°
2026-04-22 19:04 48.11193 16.57608 603 ft 15 kts 296°
2026-04-22 19:04 48.11240 16.57465 603 ft 15 kts 296°
2026-04-22 19:04 48.11284 16.57328 603 ft 15 kts 296°
2026-04-22 19:05 48.11335 16.57171 603 ft 19 kts 296°
2026-04-22 19:05 48.11397 16.56982 603 ft 22 kts 296°
2026-04-22 19:05 48.11464 16.56772 603 ft 23 kts 296°
2026-04-22 19:05 48.11533 16.56564 603 ft 22 kts 295°
2026-04-22 19:06 48.11596 16.56368 603 ft 20 kts 296°
2026-04-22 19:06 48.11655 16.56186 603 ft 19 kts 296°
2026-04-22 19:06 48.11719 16.55993 603 ft 21 kts 296°
2026-04-22 19:07 48.11838 16.55625 603 ft 17 kts 296°
2026-04-22 19:07 48.11880 16.55488 603 ft 14 kts 288°
2026-04-22 19:07 48.11921 16.55333 603 ft 20 kts 297°
2026-04-22 19:07 48.11993 16.55112 603 ft 27 kts 296°
2026-04-22 19:08 48.12079 16.54852 603 ft 27 kts 296°
2026-04-22 19:08 48.12153 16.54623 603 ft 23 kts 297°
2026-04-22 19:08 48.12216 16.54433 603 ft 22 kts 296°
2026-04-22 19:08 48.12275 16.54249 603 ft 14 kts 296°
2026-04-22 19:09 48.12286 16.54210 603 ft 0 kts 268°
2026-04-22 19:09 48.12285 16.54205 603 ft 4 kts 259°
2026-04-22 19:09 48.12246 16.54158 603 ft 17 kts 220°
2026-04-22 19:09 48.12286 16.53966 603 ft 16 kts 295°
2026-04-22 19:10 48.12338 16.53814 603 ft 17 kts 296°
2026-04-22 19:10 48.12383 16.53670 603 ft 16 kts 297°
2026-04-22 19:10 48.12477 16.53628 603 ft 15 kts 355°
2026-04-22 19:10 48.12573 16.53674 603 ft 13 kts 28°
2026-04-22 19:11 48.12629 16.53650 603 ft 6 kts 296°
2026-04-22 19:11 48.12630 16.53648 603 ft 0 kts 296°